Theta_e
305 305 304 304 304 304 304 305 305 305 305 306 306 307 307 308 308 300 296 299 295 289 291 296 298 291 291 287 284 289 285 287 285 279 279 279 278 279 279 282 281 282 281 279 279 278 278 292 293 287 292 297 297 300
304 304 304 305 304 305 305 305 305 306 306 306 306 307 308 308 307 304 294 300 301 293 292 297 297 298 297 297 293 288 286 290 288 283 281 283 278 279 279 275 286 281 285 283 283 283 292 293 294 298 298 296 296 298
303 303 304 304 304 305 305 305 305 305 306 306 307 307 308 307 307 304 295 296 295 290 291 294 294 297 301 300 298 290 292 295 293 293 288 285 282 281 277 278 282 287 292 287 287 290 291 296 296 296 297 297 301 306
303 303 304 304 304 304 305 305 305 305 306 306 307 307 307 307 306 305 295 298 295 291 286 289 299 299 304 300 298 299 296 295 295 293 288 287 282 289 286 286 283 288 289 286 286 292 291 294 294 295 297 301 301 301
303 303 304 304 304 304 304 304 305 305 306 306 306 307 307 306 307 301 296 299 297 290 284 286 293 298 300 300 296 295 291 288 288 288 287 285 289 288 289 288 286 290 288 285 284 290 289 290 292 302 300 300 301 299
303 303 303 303 304 304 304 304 305 305 306 306 306 307 307 306 306 298 294 299 298 296 287 284 292 296 299 298 295 292 289 291 291 288 286 289 293 288 284 283 290 294 296 294 292 293 291 293 297 298 296 297 298 298
303 302 303 303 304 304 304 305 305 305 306 306 306 306 307 305 298 292 291 296 302 298 289 285 287 295 297 297 295 293 293 290 290 289 288 289 290 289 285 283 289 294 295 295 295 295 288 292 292 297 297 297 298 297
302 302 303 303 303 304 304 304 305 305 305 306 306 307 307 305 302 296 297 302 300 295 293 285 286 289 295 289 288 294 291 292 289 289 291 290 291 290 284 290 293 295 295 294 293 293 293 295 296 296 296 296 294 294
302 303 303 303 303 304 304 304 305 305 305 306 307 307 300 297 295 298 308 306 297 296 287 287 279 279 293 288 289 292 290 288 292 288 289 289 285 285 289 290 292 293 292 291 294 293 293 292 293 294 294 293 292 292
302 302 303 303 303 303 303 304 305 305 305 306 302 299 294 299 309 305 298 295 295 294 294 291 289 282 288 287 287 287 290 289 286 289 291 285 285 296 296 297 297 296 296 293 290 290 292 291 292 293 293 294 293 292
301 302 302 302 303 303 304 305 305 305 304 297 292 293 297 307 298 296 292 291 292 288 290 288 287 284 292 285 283 288 287 288 280 287 287 285 286 293 296 298 300 300 295 293 293 293 293 293 293 293 294 295 295 295
301 302 302 303 303 303 304 304 304 297 294 294 294 297 297 297 294 290 287 291 287 285 289 286 288 290 289 293 291 290 287 289 283 291 287 283 289 294 299 300 301 300 297 294 295 294 295 295 295 294 294 295 295 296
301 302 302 303 303 303 304 304 304 304 303 299 297 296 290 292 282 286 282 282 284 287 288 290 288 289 290 291 288 289 287 283 294 286 284 285 290 298 300 300 301 302 303 298 295 297 297 298 299 298 298 298 297 297
301 302 302 302 303 304 305 305 305 303 299 296 294 283 285 284 286 284 288 289 292 288 289 292 291 291 291 289 290 286 291 290 284 283 283 287 295 298 301 303 302 302 304 303 303 299 298 299 299 301 301 301 300 299
301 302 302 302 304 304 304 304 305 300 299 295 293 282 288 294 293 293 291 290 291 294 293 292 293 290 289 290 290 288 287 284 284 284 289 295 298 299 299 301 303 303 303 302 305 305 303 302 301 301 302 300 299 298
302 302 301 303 304 303 304 303 303 302 301 296 294 289 291 290 292 293 293 293 297 296 295 295 291 287 288 286 286 284 283 283 287 292 295 297 295 296 296 300 303 305 304 302 304 305 305 302 302 302 301 299 296 295
301 297 303 303 303 303 305 300 302 300 296 295 292 294 292 294 293 294 294 295 299 295 292 294 286 287 288 283 285 287 285 289 293 294 297 296 295 296 295 297 299 304 304 304 305 305 304 304 302 299 298 299 296 295
295 296 302 303 302 302 303 300 299 298 294 293 289 291 292 293 293 297 297 296 296 295 295 291 291 286 284 284 285 288 292 295 296 295 294 293 295 293 295 294 297 302 302 301 301 302 303 302 301 300 300 299 298 297
296 298 302 302 300 297 299 295 297 292 293 294 294 296 294 294 296 297 297 296 296 296 293 292 288 286 286 289 289 290 292 293 292 293 293 291 292 292 294 294 295 294 298 299 299 299 302 303 303 301 300 296 296 296
301 302 303 303 302 298 296 293 298 293 290 293 294 294 295 295 296 295 295 295 294 291 288 287 287 287 288 290 292 292 294 296 295 289 289 290 292 292 292 292 291 292 293 295 297 296 299 300 300 300 299 298 298 296
301 302 303 301 301 299 294 293 293 293 293 292 296 294 294 296 293 292 292 294 292 290 286 291 292 294 296 297 298 298 296 295 292 289 289 289 292 291 292 292 292 292 292 295 296 297 297 297 297 299 300 303 302 297
300 304 300 304 298 297 293 295 293 295 293 294 294 296 293 291 291 292 294 290 290 292 294 295 296 296 298 300 301 298 296 295 292 290 292 291 289 289 290 290 290 289 290 292 293 295 296 297 301 301 303 301 299 297
302 300 300 301 291 285 285 295 293 293 291 292 295 292 291 291 292 296 290 291 292 295 298 299 300 300 300 302 300 299 297 294 291 290 290 290 290 290 290 290 290 289 289 291 293 293 295 292 299 301 302 301 299 297
301 297 294 292 290 285 295 292 293 292 292 291 291 291 292 291 295 291 288 290 294 296 295 296 297 296 296 297 296 294 294 294 293 292 291 290 289 288 290 289 290 290 290 291 292 292 294 295 296 300 300 298 299 299
287 286 288 279 290 291 290 292 291 290 290 291 292 291 293 294 289 289 290 291 293 293 294 296 295 294 294 292 294 297 295 294 292 291 292 290 289 289 289 290 290 290 291 291 291 291 292 295 296 298 300 298 298 296
277 289 285 292 291 289 289 288 291 290 289 288 289 292 295 292 290 289 293 295 295 295 295 295 293 293 293 293 293 296 294 294 293 291 292 290 290 288 287 288 287 288 291 292 291 291 292 292 292 297 297 298 292 297
280 289 291 294 292 292 287 291 292 289 290 289 288 288 286 286 287 293 298 299 297 297 296 297 299 296 294 294 295 298 299 296 294 293 293 292 291 291 290 289 288 289 292 293 293 292 292 293 294 298 297 297 296 296
293 293 289 292 290 291 288 289 290 289 290 292 291 287 286 283 281 293 297 298 297 298 298 297 299 296 296 297 297 298 298 296 296 295 293 293 292 291 291 292 292 287 293 293 293 294 293 294 295 296 294 294 295 294
291 293 293 291 291 290 289 288 289 292 295 292 289 289 286 293 296 295 297 298 298 299 296 298 297 298 297 298 296 296 295 294 292 289 287 286 286 287 290 290 291 292 293 293 289 289 291 292 294 295 294 293 293 293
293 294 290 292 288 286 289 293 291 294 295 294 295 294 294 294 296 298 297 297 298 298 297 297 297 296 295 296 293 292 292 291 291 289 286 285 285 287 288 289 290 290 292 292 292 293 289 293 291 293 292 291 290 290
295 294 291 290 289 291 292 294 294 294 294 293 294 291 291 293 296 298 297 296 297 296 296 295 295 296 295 294 292 290 289 291 291 290 288 286 286 287 288 288 289 290 291 292 291 291 291 290 289 289 289 288 288 288
291 290 288 288 288 293 295 293 291 290 291 290 289 292 292 291 290 294 297 300 298 298 292 295 296 295 297 295 294 294 289 292 291 289 288 287 287 287 287 287 287 290 291 291 291 290 291 289 288 287 287 287 286 286
291 292 292 291 290 290 292 292 290 290 291 290 291 292 292 291 289 294 300 300 299 297 297 297 297 297 297 297 296 294 291 290 286 283 282 283 282 284 285 285 287 289 289 288 289 289 288 288 286 286 285 285 285 285
Wind_Speed
6 7 8 9 10 11 12 14 15 16 17 19 19 20 19 19 19 7 4 3 4 2 5 1 2 3 4 4 2 6 6 6 5 6 3 3 2 4 4 6 6 4 8 3 3 4 4 16 12 7 7 9 13 12
5 6 6 7 8 9 11 12 14 15 16 18 18 18 17 17 16 10 3 5 1 4 6 4 3 2 7 6 2 4 3 3 0 1 2 2 3 3 4 4 5 4 3 5 3 1 9 13 10 6 8 10 10 14
4 5 5 6 8 9 10 12 14 15 16 17 17 18 16 14 13 8 2 4 4 4 5 6 4 2 3 4 5 3 1 3 2 3 1 2 5 0 3 5 4 5 5 3 8 2 16 7 12 11 13 12 16 9
3 3 5 6 8 10 11 13 14 15 16 16 16 17 15 12 10 6 2 3 4 2 3 5 3 3 2 6 4 3 1 5 3 2 1 2 3 2 3 5 4 2 6 8 6 7 15 10 20 21 14 8 14 14
2 3 5 6 9 10 12 13 14 15 16 17 17 16 13 11 9 3 2 2 2 5 3 4 8 5 3 9 10 8 6 4 2 2 1 1 3 4 3 4 3 4 3 2 3 10 6 12 24 19 20 19 16 18
1 3 5 7 9 11 12 14 15 16 17 18 17 14 11 10 9 2 4 3 3 4 4 2 4 7 6 8 9 7 4 3 2 2 1 2 2 2 4 3 7 11 6 3 4 10 12 15 18 21 20 15 11 14
1 4 6 8 10 11 13 15 16 17 17 17 16 13 9 7 3 3 5 4 3 3 3 4 4 4 2 3 1 2 2 2 1 1 1 2 2 2 2 5 14 14 11 10 12 6 8 18 12 13 12 14 18 16
2 5 7 8 11 12 14 16 18 19 18 17 15 10 7 5 2 2 3 3 2 3 3 3 4 5 4 3 3 1 2 2 1 2 2 2 3 1 3 5 3 2 3 7 7 9 3 10 11 9 10 12 15 13
3 5 8 9 11 13 14 16 19 22 22 18 9 1 3 3 2 3 2 2 1 3 3 3 2 5 4 3 2 4 1 3 1 2 2 2 2 4 5 7 5 5 4 2 5 4 7 11 11 12 9 9 10 8
4 6 8 10 12 13 15 17 19 23 25 6 3 3 4 3 8 5 5 4 4 3 3 2 2 3 4 3 3 3 1 0 3 2 2 4 3 5 12 9 7 6 6 3 5 3 5 4 4 6 7 7 7 6
5 7 9 11 13 14 14 15 17 22 8 5 5 1 3 0 3 1 1 2 1 4 3 1 2 2 3 2 3 1 3 1 2 4 3 4 5 9 13 13 10 6 2 2 4 5 5 4 1 3 5 6 7 8
6 8 10 12 13 14 13 13 13 6 0 1 2 3 3 1 3 5 4 4 5 1 4 2 4 2 4 1 1 3 3 2 4 2 3 4 5 16 12 11 10 7 4 4 3 5 5 6 5 4 4 6 6 5
8 10 12 13 14 14 13 13 12 10 8 1 0 2 4 3 9 5 6 4 4 4 3 4 5 2 4 1 3 2 5 2 2 4 4 2 10 9 8 8 9 7 8 1 3 3 4 4 3 2 5 4 6 6
9 12 13 15 15 14 14 14 11 6 1 1 1 6 4 4 2 0 1 2 3 2 4 4 3 2 3 3 2 4 2 4 5 3 4 5 12 11 7 5 4 5 7 10 6 3 6 4 2 3 4 5 6 6
11 13 15 13 10 14 16 16 10 2 1 2 5 3 3 2 1 2 2 1 3 2 2 3 3 1 3 2 4 4 5 4 3 4 3 6 10 10 8 11 11 5 1 4 6 7 6 4 5 5 6 6 6 6
12 13 3 11 14 16 17 8 1 2 1 3 5 4 2 2 1 1 2 3 2 2 1 2 2 3 5 4 5 5 3 2 3 4 6 8 8 8 7 6 4 5 7 7 5 4 3 5 5 6 6 5 6 6
9 2 7 13 18 19 4 1 2 2 4 4 2 2 1 1 2 3 2 3 2 2 2 1 5 2 2 4 3 2 1 3 5 6 6 7 6 8 8 6 6 4 4 5 5 5 2 2 4 3 5 5 5 5
3 4 11 14 13 6 4 1 2 3 4 2 3 3 1 3 3 4 1 2 2 1 3 3 2 5 3 3 2 3 4 4 5 5 5 5 7 8 6 8 8 4 5 5 4 6 8 7 3 4 4 4 5 5
6 9 16 14 4 1 2 3 4 3 1 1 1 1 1 2 2 1 2 2 3 3 4 3 4 2 2 3 4 4 4 3 4 4 5 7 7 7 6 7 9 8 6 5 4 4 4 5 3 3 3 1 3 3
15 16 12 7 3 2 4 4 3 3 1 4 1 2 1 1 2 1 1 2 3 3 5 3 2 3 4 4 4 4 5 4 3 3 5 5 5 7 6 5 5 6 6 9 5 4 3 4 5 5 4 3 4 3
6 4 6 3 1 1 1 2 3 2 1 1 1 2 2 2 2 2 3 3 5 3 1 2 3 4 5 5 5 4 6 2 2 3 3 2 4 4 5 5 5 6 5 6 7 7 8 5 4 3 4 5 5 2
3 6 3 1 1 3 2 3 3 2 3 2 1 2 0 1 1 1 2 4 1 2 3 3 3 4 3 5 5 4 3 3 0 3 6 4 4 5 4 4 5 5 5 4 3 3 4 4 5 5 5 4 3 4
7 0 2 1 2 4 7 2 1 1 2 2 2 1 2 2 3 3 2 2 3 3 4 3 5 5 6 6 5 2 2 5 1 3 3 3 3 4 4 4 4 4 5 4 3 4 3 5 5 5 5 4 4 4
2 2 3 2 4 4 2 1 1 0 1 2 1 2 2 3 1 3 2 2 3 1 1 4 3 4 3 3 1 2 0 2 2 2 2 4 4 3 4 3 3 3 2 3 4 4 5 5 6 4 4 3 4 3
4 5 4 5 4 2 3 3 3 1 2 2 0 1 2 2 1 2 4 2 1 1 1 3 4 4 2 2 2 2 1 3 3 2 3 3 2 3 4 3 4 3 3 5 5 5 6 7 6 5 4 4 6 5
2 3 5 3 2 1 3 4 4 3 1 2 1 3 3 2 1 2 3 1 2 2 0 1 1 2 3 1 2 2 3 2 4 3 3 4 4 4 2 3 3 5 4 1 3 5 6 5 5 7 6 7 6 5
1 4 4 3 2 3 4 2 1 3 1 2 1 1 2 2 2 1 4 3 3 1 1 1 3 3 3 4 5 3 1 3 4 3 3 4 4 3 3 3 3 4 4 5 5 5 5 5 3 5 6 7 6 6
4 2 2 2 2 2 0 2 1 1 3 3 3 3 2 5 5 4 4 3 3 0 1 3 2 2 3 5 4 0 4 5 6 5 4 4 4 4 5 4 5 4 4 5 5 7 5 3 4 7 7 6 8 9
3 3 2 2 2 1 1 1 2 1 5 4 4 3 4 3 3 2 2 2 2 2 1 4 4 2 4 5 6 5 5 5 7 7 5 3 4 4 5 5 5 5 4 4 7 7 7 5 5 6 7 6 5 4
3 2 3 1 2 2 3 3 1 1 3 4 3 1 1 3 4 3 1 1 1 3 4 3 2 3 3 7 5 5 5 4 5 4 2 1 3 3 4 5 5 5 5 4 4 4 7 6 6 6 8 7 6 6
2 4 1 2 2 2 3 1 1 2 1 0 1 3 4 4 4 2 4 3 3 0 2 2 2 1 5 6 6 5 3 1 4 5 4 2 3 4 5 5 5 5 5 5 2 4 5 5 5 6 7 8 10 9
2 1 2 3 4 5 4 2 1 2 2 1 3 1 3 3 2 4 3 3 4 1 2 3 5 3 3 4 4 4 7 5 4 3 5 4 3 4 5 4 5 5 7 6 2 4 7 7 6 6 6 8 8 8
2 0 1 2 2 2 3 1 2 3 3 3 4 5 5 5 5 5 2 3 2 4 4 4 5 5 6 5 6 6 6 5 7 6 6 6 5 4 4 4 4 5 7 6 7 6 6 8 7 7 7 7 6 6
Wind_Direction
72 51 33 22 17 15 11 10 3 1 2 2 2 4 5 4 9 31 283 336 93 135 277 223 76 332 358 57 53 283 15 8 15 34 35 324 313 287 313 279 280 329 325 318 337 321 345 338 332 10 315 307 316 312
79 52 28 18 15 7 6 357 354 356 355 356 358 358 360 5 9 22 359 311 35 117 234 245 281 332 128 158 161 3 181 3 304 50 43 289 287 296 287 285 346 332 308 310 312 298 263 274 287 338 314 314 296 299
81 48 24 13 4 -0 352 350 349 350 350 351 351 353 358 1 7 17 280 301 20 42 335 41 34 271 134 143 141 93 286 248 131 149 206 237 266 201 285 267 306 306 348 297 317 220 324 327 341 323 325 314 320 115
80 44 20 4 354 351 345 340 342 345 345 345 347 351 353 354 356 5 11 302 80 103 96 278 3 328 122 111 93 82 84 44 64 42 23 274 269 329 274 290 296 352 303 321 281 319 320 351 326 317 288 254 85 57
77 32 6 348 347 342 335 335 338 338 340 343 344 347 346 343 337 340 251 285 134 118 192 283 313 277 37 91 74 51 60 58 42 58 317 289 292 314 290 279 318 298 293 328 321 3 335 314 316 52 49 62 79 82
80 4 351 345 338 333 333 333 332 334 335 337 337 340 338 333 342 44 32 322 4 106 83 43 300 4 59 100 96 81 93 59 51 14 319 288 251 354 316 313 315 340 56 10 331 49 16 329 37 49 66 71 63 74
43 354 343 336 333 332 331 329 328 327 327 327 324 327 319 321 44 107 176 228 2 73 73 355 5 329 349 99 86 72 95 100 86 299 281 271 279 46 281 358 356 32 33 39 34 39 358 16 31 29 50 61 65 65
1 337 332 332 332 331 328 327 325 321 325 320 313 312 293 301 324 354 270 241 77 81 79 64 302 3 19 359 353 11 356 124 5 299 311 310 308 319 10 304 321 358 24 40 51 84 56 20 44 39 43 61 65 61
326 327 331 330 328 328 328 328 325 324 325 324 318 308 43 49 45 235 221 212 110 123 93 63 53 286 4 350 308 339 63 13 269 4 329 19 318 31 298 312 311 285 326 62 81 41 72 54 23 32 37 49 66 55
314 328 326 325 326 326 329 327 327 327 325 342 66 44 17 299 114 86 13 21 16 355 48 79 36 301 60 341 308 358 331 301 13 285 81 31 317 329 349 332 1 312 299 65 83 67 46 34 352 347 13 30 50 58
320 322 322 324 323 325 326 325 331 333 2 28 15 23 256 200 23 58 81 69 345 35 20 320 136 285 303 42 291 224 290 240 46 302 67 350 359 339 333 332 338 343 344 73 81 104 155 158 171 358 25 46 45 50
318 321 319 318 320 319 318 321 335 3 306 188 247 280 302 342 23 56 359 12 47 359 331 354 278 228 289 144 296 287 276 11 23 11 30 12 326 320 328 331 342 353 23 103 102 96 101 115 127 107 89 88 71 73
320 319 315 315 313 310 311 310 315 284 290 118 143 342 60 348 38 41 356 324 339 347 4 315 323 301 328 66 285 336 30 12 52 12 10 308 291 343 322 326 338 355 9 92 146 130 122 120 114 109 101 90 95 72
321 315 313 310 307 306 303 306 309 313 75 58 101 15 87 7 44 224 293 285 279 252 294 308 276 272 276 348 273 45 10 59 4 19 358 304 323 323 358 11 349 346 349 355 9 101 165 151 145 100 100 131 103 86
317 312 310 300 306 312 308 302 290 184 105 337 60 47 54 129 152 191 218 268 253 221 232 295 279 166 299 359 33 25 32 35 349 339 286 294 307 327 359 7 19 16 344 65 16 11 87 123 84 64 74 81 92 95
324 314 305 313 312 312 306 309 122 138 228 73 49 33 33 56 288 259 258 264 245 229 244 233 271 0 16 55 44 16 41 350 319 309 289 301 316 322 332 336 347 31 65 71 61 349 7 108 116 116 110 111 123 134
323 262 327 337 332 316 322 30 352 272 65 62 51 49 132 116 262 255 214 250 257 1 308 24 46 5 356 63 54 8 311 268 256 294 299 300 301 310 322 341 345 10 91 106 111 341 39 120 115 124 156 181 165 171
217 303 327 336 342 330 328 44 1 54 65 10 92 253 209 194 254 292 263 301 149 258 28 59 86 40 49 42 8 262 252 277 264 256 274 306 321 333 350 354 14 8 20 33 63 35 26 13 323 254 233 209 194 205
283 300 302 311 335 25 341 335 79 93 174 185 235 277 201 261 267 247 87 13 36 74 86 60 72 75 131 216 227 264 265 249 273 292 293 314 337 345 4 15 28 20 6 354 29 50 77 287 314 338 356 138 182 230
292 282 279 286 177 39 337 324 76 97 128 238 77 350 263 239 260 75 35 68 70 75 49 59 163 204 194 237 217 248 271 266 268 335 321 336 335 13 16 34 29 8 14 14 358 11 358 355 340 354 7 26 61 355
321 298 338 131 104 121 186 300 5 165 133 99 202 86 293 6 56 36 10 2 49 60 74 206 221 248 238 244 243 247 263 243 179 201 246 332 322 28 32 15 27 26 29 22 19 12 18 2 324 3 19 347 358 224
270 341 344 320 6 16 6 256 170 234 91 217 80 119 47 338 251 208 143 41 43 239 189 190 220 219 254 268 268 253 275 68 291 2 29 45 26 21 26 11 32 21 15 7 6 7 342 336 356 347 36 28 1 2
305 105 286 339 54 47 261 30 82 182 122 250 58 130 248 246 226 121 65 211 241 234 220 228 241 218 210 245 237 302 24 82 75 360 37 71 48 51 75 33 25 37 11 327 337 358 341 335 342 347 351 357 5 18
356 4 347 314 134 249 273 276 251 233 120 79 216 238 202 214 62 75 153 239 248 270 19 319 348 1 11 64 159 252 277 114 69 357 28 99 79 43 107 68 13 1 8 322 337 348 330 330 326 334 345 349 347 330
56 314 93 298 258 290 250 168 178 175 160 243 144 319 343 357 143 185 177 245 238 177 277 313 36 48 73 14 352 281 265 124 105 13 349 123 117 41 39 37 358 342 4 23 349 350 341 349 357 358 2 7 13 25
90 241 147 261 287 91 351 23 40 31 353 323 248 159 96 283 290 67 326 316 213 171 341 82 111 27 336 307 295 328 269 189 99 44 344 110 106 106 78 51 4 325 339 11 358 345 333 333 347 5 7 360 6 21
347 260 224 235 108 71 11 26 60 81 291 237 249 57 57 28 32 308 327 245 202 277 206 262 186 172 238 280 287 299 144 127 100 126 137 95 78 91 112 81 352 273 304 358 348 328 318 334 359 10 10 19 3 355
250 292 110 188 79 113 308 299 331 7 62 345 18 350 336 177 224 229 206 229 188 190 292 295 308 275 268 264 268 275 113 86 68 82 81 47 35 27 15 13 10 350 347 4 357 346 337 338 36 44 34 23 47 23
263 275 104 203 101 152 221 234 317 92 162 133 150 215 238 226 225 218 257 232 245 218 310 317 320 349 15 45 51 51 81 97 88 71 40 354 352 338 343 359 352 341 333 15 11 27 46 64 68 66 44 26 17 31
263 113 92 64 146 226 243 152 235 218 186 190 190 80 37 291 247 225 222 308 329 253 224 201 191 103 95 114 99 54 27 69 92 121 153 298 280 295 345 351 340 341 350 354 44 32 22 40 39 45 47 36 20 22
349 38 57 177 245 251 233 273 330 1 20 101 0 137 217 250 307 242 194 222 211 101 114 70 30 88 107 106 132 124 117 20 100 93 92 70 34 12 354 348 346 339 348 348 24 75 77 62 57 50 48 43 31 31
13 113 90 353 311 298 356 347 235 206 257 222 269 230 336 35 284 281 257 101 79 112 168 118 105 109 131 128 129 132 131 131 132 105 89 83 54 18 10 357 343 341 358 3 358 65 88 88 77 65 55 46 35 30
108 82 296 273 295 278 285 163 274 269 233 221 238 205 203 179 217 248 312 52 160 174 166 162 168 154 154 154 141 137 126 135 136 127 125 126 112 69 35 5 353 7 31 26 27 42 67 84 80 75 63 47 37 25